NKS065 TIST-KFLL

Flight info

Callsign NKS065
Flight time N/A
Altitude 34000
Route PALCO7 PALCO RTE6 SJU DCT ACONY Y280 SAPPO Y399 ZQA OLAHS3
Aircraft A20N/M-SDE2E3FGHIRWXY/LB1

Departure

Time N/A
Airport Cyril E. King Airport (TIST)

Arrival

Time 2026-05-04 12:42
Airport Fort Lauderdale Hollywood International Airport (KFLL)
Time Latitude Longitude Altitude Speed Heading
2026-05-04 12:36 26.05448 -79.81815 5005 ft 262 kts 283°
2026-05-04 12:37 26.05883 -79.83791 5006 ft 263 kts 284°
2026-05-04 12:37 26.06324 -79.85764 5007 ft 263 kts 284°
2026-05-04 12:37 26.06768 -79.87738 5005 ft 263 kts 284°
2026-05-04 12:37 26.07213 -79.89713 5007 ft 263 kts 283°
2026-05-04 12:38 26.07507 -79.91718 5009 ft 262 kts 274°
2026-05-04 12:38 26.07570 -79.93722 4979 ft 254 kts 271°
2026-05-04 12:38 26.07582 -79.95658 4730 ft 248 kts 271°
2026-05-04 12:38 26.07588 -79.97550 4412 ft 242 kts 271°
2026-05-04 12:39 26.07594 -79.99404 3960 ft 237 kts 272°
2026-05-04 12:39 26.07602 -80.01207 3465 ft 230 kts 273°
2026-05-04 12:39 26.07609 -80.02941 2958 ft 217 kts 274°
2026-05-04 12:39 26.07616 -80.04573 2448 ft 207 kts 275°
2026-05-04 12:40 26.07625 -80.06114 2074 ft 192 kts 274°
2026-05-04 12:40 26.07632 -80.07577 1569 ft 187 kts 274°
2026-05-04 12:40 26.07621 -80.08980 1168 ft 175 kts 273°
2026-05-04 12:40 26.07602 -80.10281 848 ft 162 kts 277°
2026-05-04 12:41 26.07654 -80.11508 601 ft 151 kts 278°
2026-05-04 12:41 26.07687 -80.12658 346 ft 144 kts 272°
2026-05-04 12:41 26.07673 -80.13741 128 ft 132 kts 274°
2026-05-04 12:41 26.07682 -80.14692 27 ft 114 kts 275°
2026-05-04 12:42 26.07687 -80.15281 19 ft 53 kts 271°
2026-05-04 12:42 26.07691 -80.15647 19 ft 44 kts 271°
2026-05-04 12:42 26.07691 -80.15894 22 ft 16 kts 269°
2026-05-04 12:42 26.07637 -80.15939 21 ft 11 kts 179°
2026-05-04 12:43 26.07568 -80.15912 19 ft 11 kts 114°
2026-05-04 12:43 26.07550 -80.15836 20 ft 10 kts 136°
2026-05-04 12:43 26.07546 -80.15831 19 ft 0 kts 137°
2026-05-04 12:45 26.07545 -80.15830 19 ft 1 kts 137°
2026-05-04 12:45 26.07524 -80.15809 19 ft 7 kts 137°
2026-05-04 12:45 26.07470 -80.15753 19 ft 14 kts 136°
2026-05-04 12:46 26.07390 -80.15664 19 ft 18 kts 136°
2026-05-04 12:46 26.07288 -80.15552 21 ft 23 kts 135°
2026-05-04 12:46 26.07166 -80.15418 20 ft 26 kts 135°
2026-05-04 12:46 26.07085 -80.15329 20 ft 11 kts 135°
2026-05-04 12:47 26.07028 -80.15301 21 ft 9 kts 184°
2026-05-04 12:47 26.06967 -80.15303 19 ft 9 kts 180°
2026-05-04 12:47 26.06939 -80.15303 19 ft 1 kts 179°
2026-05-04 12:47 26.06924 -80.15303 19 ft 4 kts 180°
2026-05-04 12:48 26.06878 -80.15304 19 ft 9 kts 181°
2026-05-04 12:48 26.06800 -80.15303 19 ft 13 kts 168°
2026-05-04 12:48 26.06767 -80.15219 19 ft 14 kts 87°
2026-05-04 12:48 26.06768 -80.15101 19 ft 16 kts 90°
2026-05-04 12:49 26.06767 -80.14965 18 ft 19 kts 90°
2026-05-04 12:49 26.06766 -80.14810 18 ft 21 kts 90°
2026-05-04 12:49 26.06765 -80.14680 18 ft 10 kts 90°
2026-05-04 12:49 26.06765 -80.14668 18 ft 0 kts 90°
2026-05-04 12:50 26.06765 -80.14658 18 ft 3 kts 91°
2026-05-04 12:50 26.06765 -80.14624 18 ft 6 kts 90°
2026-05-04 12:50 26.06766 -80.14568 18 ft 9 kts 89°
2026-05-04 12:50 26.06772 -80.14492 21 ft 11 kts 83°
2026-05-04 12:51 26.06770 -80.14396 19 ft 14 kts 91°
2026-05-04 12:51 26.06777 -80.14289 20 ft 13 kts 64°
2026-05-04 12:51 26.06823 -80.14254 19 ft 8 kts 352°
2026-05-04 12:51 26.06859 -80.14255 19 ft 2 kts
2026-05-04 12:52 26.06877 -80.14254 19 ft 2 kts
2026-05-04 12:52 26.06880 -80.14254 19 ft 0 kts